Weather History for KBML - February, 2003

Change the Weather History Date:

Sunday, February 16, 2003

  Actual Average Record
Temperature  
Mean Temperature -8 °F -  
Max Temperature 3 °F 27 °F 48 °F (2005)
Min Temperature -18 °F 1 °F -26 °F (2004)
Degree Days  
Heating Degree Days 72    
Moisture  
Dew Point -26 °F    
Average Humidity 46    
Maximum Humidity 75    
Minimum Humidity 22    
Precipitation  
Precipitation 0.00 in - - ()
Sea Level Pressure  
Sea Level Pressure 30.72 in    
Wind  
Wind Speed 5 mph (NNW)    
Max Wind Speed 9 mph    
Max Gust Speed -    
Visibility 10 miles    
Events      
Averages and records for this station are not official NWS values.
T = Trace of Precipitation, MM = Missing Value Source: NWS Daily Summary

Daily Weather History Graph

Daily Weather History Graph

Search for Another Location

Airport or City:

Trip Planner

Search our weather history database for the weather conditions in past years. The results will help you decide how hot, cold, wet, or windy it might be!

Date:

Astronomy

Feb. 16, 2003 Rise Set
Actual Time 6:43 AM EST 5:14 PM EST
Civil Twilight 6:14 AM EST 5:44 PM EST
Nautical Twilight 5:39 AM EST 6:18 PM EST
Astronomical Twilight 5:06 AM EST 6:52 PM EST
Moon 4:52 PM EST (2/16) 6:59 AM EST (2/16)
Length of Visible Light 11h 30m
Length of Day
10h 30m
Full, 100% of the Moon is Illuminated
Feb 16
Full
Feb 16
Full
Feb 23
Last Quarter
Mar 2
New
Mar 11
First Quarter

Hourly Weather History & Observations

Time (EST) Temp. Windchill Dew Point Humidity Pressure Visibility Wind Dir Wind Speed Gust Speed Precip Events Conditions
12:52 AM -11.0 °F -28.8 °F -29.9 °F 39% 30.63 in 10.0 mi NNW 9.2 mph - N/A   Clear
1:52 AM -15.0 °F -31.0 °F -29.9 °F 47% 30.66 in 10.0 mi WNW 6.9 mph - N/A   Clear
2:52 AM -14.1 °F -26.3 °F -31.0 °F 43% 30.66 in 10.0 mi NNW 4.6 mph - N/A   Clear
3:52 AM -18.9 °F - -32.1 °F 51% 30.68 in 10.0 mi Calm Calm - N/A   Clear
4:52 AM -18.0 °F -34.7 °F -31.0 °F 52% 30.69 in 10.0 mi North 6.9 mph - N/A   Clear
5:52 AM -18.0 °F -33.0 °F -32.1 °F 49% 30.73 in 10.0 mi NNE 5.8 mph - N/A   Clear
6:52 AM -18.9 °F -34.0 °F -31.0 °F 54% 30.76 in 10.0 mi North 5.8 mph - N/A   Clear
7:52 AM -17.0 °F -33.4 °F -32.1 °F 46% 30.79 in 10.0 mi NNW 6.9 mph - N/A   Clear
8:52 AM -14.1 °F -31.3 °F -29.9 °F 45% 30.80 in 10.0 mi North 8.1 mph - N/A   Clear
9:52 AM -9.9 °F -26.3 °F -29.0 °F 39% 30.78 in 10.0 mi North 8.1 mph - N/A   Clear
10:52 AM -7.1 °F -18.1 °F -29.9 °F 32% 30.76 in 10.0 mi North 4.6 mph - N/A   Clear
11:52 AM -2.9 °F - -29.0 °F 28% 30.75 in 10.0 mi Calm Calm - N/A   Clear
12:52 PM -0.0 °F - -26.0 °F 29% 30.73 in 10.0 mi Calm Calm - N/A   Clear
1:52 PM 3.0 °F -6.4 °F -27.9 °F 22% 30.72 in 10.0 mi Variable 4.6 mph - 0.00 in   Clear
2:52 PM 3.9 °F -3.4 °F -25.1 °F 25% 30.70 in 10.0 mi Variable 3.5 mph - N/A   Clear
3:52 PM 3.9 °F -5.3 °F -26.0 °F 24% 30.70 in 10.0 mi West 4.6 mph - N/A   Clear
4:52 PM 1.9 °F - -24.0 °F 29% 30.69 in 10.0 mi Calm Calm - N/A   Clear
5:52 PM -2.9 °F - -18.0 °F 49% 30.72 in 10.0 mi Calm Calm - N/A   Clear
6:52 PM -5.1 °F - -18.9 °F 51% 30.71 in 10.0 mi Calm Calm - N/A   Clear
7:52 PM -8.0 °F - -18.0 °F 61% 30.72 in 10.0 mi Calm Calm - N/A   Clear
8:52 PM -11.0 °F - -18.0 °F 71% 30.72 in 10.0 mi Calm Calm - N/A   Clear
9:52 PM -11.0 °F - -18.9 °F 68% 30.72 in 10.0 mi Calm Calm - N/A   Clear
10:52 PM -11.9 °F - -18.9 °F 71% 30.71 in 10.0 mi Calm Calm - N/A   Clear
11:52 PM -14.1 °F - -20.0 °F 75% 30.71 in 10.0 mi Calm Calm - N/A   Clear